Regional Weather Roundup
Issued by NWS

Home | Current Version | Previous Version | Graphics & Text | Print | Product List | Glossary On
Versions: 1 2 3 4 5 6 7 8 9 10 11 12 13 14 15 16 17 18 19 20 21 22 23 24 25 26 27 28 29 30 31 32 33 34 35 36 37 38 39 40 41 42 43 44 45 46 47 48 49 50
000
ASUS45 KBOI 230910
RWRID
WEATHER ROUNDUP FOR IDAHO
NATIONAL WEATHER SERVICE BOISE ID
300 AM MDT SAT AUG 23 2014

NOTE: "FAIR" INDICATES FEW OR NO CLOUDS BELOW 12000 FEET
WITH NO SIGNIFICANT WEATHER AND/OR OBSTRUCTIONS TO VISIBILITY

IDZ012-014-231000-
SOUTHWEST IDAHO


CITY           SKY/WX    TMP DP  RH WIND       PRES   REMARKS
BOISE          PTCLDY    58  45  62 CALM      30.00R
CALDWELL       PTCLDY    55  37  50 W7        30.02R
MOUNTAIN HOME  PTCLDY    56  45  66 N3        30.00R
$$

IDZ016-017-231000-
SOUTHCENTRAL IDAHO


CITY           SKY/WX    TMP DP  RH WIND       PRES   REMARKS
BURLEY         PTCLDY    47  44  90 SW5       30.01R
JEROME         PTCLDY    49  47  93 NE8       30.02R
TWIN FALLS     PTCLDY    51  45  79 W7        30.01R
$$

IDZ019>023-231000-
SOUTHEAST IDAHO


CITY           SKY/WX    TMP DP  RH WIND       PRES   REMARKS
IDAHO FALLS    CLOUDY    52  50  93 S3        30.01F
POCATELLO      MOCLDY    51  51 100 S3        30.02S
REXBURG        CLOUDY    54  46  74 CALM      30.01F
$$

IDZ006-010-011-018-031-032-231000-
CENTRAL IDAHO MOUNTAINS


CITY           SKY/WX    TMP DP  RH WIND       PRES   REMARKS
MCCALL         CLEAR     44  41  89 S3        30.06R
HAILEY         MOCLDY    46  43  87 N3        30.07S
STANLEY          N/A     40  39  97 CALM      30.12F
SALMON         CLOUDY    52  50  93 CALM      30.05R
CHALLIS        CLOUDY    44  43  96 W3        30.07S
$$

IDZ002-004-006-007-026-231000-
NORTHERN IDAHO


CITY           SKY/WX    TMP DP  RH WIND       PRES   REMARKS
LEWISTON       LGT RAIN  61  56  83 CALM      30.05R
LOWELL           N/A     57  55  93 CALM      30.07S
COEUR D`ALENE  CLOUDY    61  43  51 N15       30.10S
MULLAN PASS    CLOUDY    43  39  86 VRB3      30.17S
$$



USA.gov is the U.S. government's official web portal to all federal, state and local government web resources and services.